    Orbital elements:
    2019 FH1                                                 Earth MOID = 0.0425 AU
    Epoch 2019 Apr. 27.0 TT = JDT 2458600.5                 MPC
    M  10.00106              (2000.0)            P               Q
    n   0.56234645     Peri.  152.20620     -0.94337234     +0.32922695
    a   1.4536731      Node    47.07650     -0.31374501     -0.84558805
    e   0.2847986      Incl.    3.18789     -0.10776222     -0.42022668
    P   1.75           H   25.2           G   0.15           U   7
    Residuals in seconds of arc
    190328 F51  0.2-  0.2+    190329 I52  0.0   0.4-    190330 033  0.1-  0.2-
    190328 F51  0.1+  0.1+    190329 711 (2.0-  0.1+)   190330 033  0.3-  0.2-
    190328 G96  0.1-  0.0     190329 711 (1.9-  0.9+)   190330 033  0.1+  0.3-
    190328 F51  0.1+  0.3+    190329 711 (1.7-  0.6+)   190330 033  0.1+  0.2-
    190328 G96  0.4-  0.2-    190329 587  0.7-  0.6+    190330 033  0.2+  0.2-
    190328 G96  0.4-  0.0     190329 587  0.4-  0.7+    190330 I52  0.1-  0.2-
    190328 G96  0.3-  0.0     190329 587  0.4-  0.1+    190330 I52  0.2-  0.1+
    190328 G96  0.5+  0.0     190330 033  0.7-  0.3+    190330 I52  0.2-  0.7-
    190328 G96  0.4-  0.3+    190330 033  0.6-  0.1+    190330 I52  0.1-  0.1+
    190328 G96  0.3-  0.1+    190330 033  0.5-  0.0     190330 711  1.2+  1.3+
    190328 I93  0.0   0.2-    190330 K63  0.6-  0.1+    190330 711  0.3-  0.3+
    190328 I93  0.5-  0.3-    190330 K63  0.1+  0.4+    190330 711  1.4+  1.0+
    190328 I93  0.3-  0.2+    190330 K63  0.3-  0.2+    190330 711  1.0+  0.8+
    190328 L01  0.1-  0.6+    190330 033  0.2+  0.2-    190330 033  0.1+  0.3-
    190328 L01  0.2+  0.5-    190330 033  0.1+  0.0     190330 033  0.3+  0.4-
    190328 L01  0.4-  0.6-    190330 033  0.2-  0.0     190331 033  0.2+  0.2-
    190329 J95  0.4+  0.0     190330 033  0.7-  0.1-    190331 033  0.1+  0.3-
    190329 J95  0.4+  0.5-    190330 033  0.0   0.1-    190331 I52  0.1-  0.1-
    190329 J95  0.1+  0.5-    190330 033  0.2-  0.2-    190331 I52  0.0   0.4-
    190329 I52  0.0   0.1-    190330 K87  0.6+  0.9+    190331 I52  0.6-  0.3-
    190329 I52  0.6-  0.4-    190330 K87  0.3+  1.3+    190331 I52  0.3-  0.3-
    190329 I52  0.4-  0.3-    190330 K87  0.3+  0.7+
    
    Ephemeris:
    2019 FH1                 a,e,i = 1.45, 0.28, 3                   q = 1.0397
    Date    TT    R. A. (2000) Decl.     Delta      r     Elong.  Phase     V
    2019 03 01    11 18 34.3 +35 32 09   0.1182  1.0959   151.3    25.7    21.9
    ...
    2019 03 16    12 05 16.6 +37 59 36   0.08217 1.0618   143.6    33.7    21.3
    ...
    2019 03 24    12 47 07.0 +36 43 52   0.06684 1.0497   141.2    36.5    20.9
    ...
    2019 03 30    13 27 57.0 +33 22 30   0.05737 1.0436   140.9    37.1    20.6
    2019 03 31    13 35 26.8 +32 32 13   0.05600 1.0429   141.0    37.1    20.5
    2019 04 01    13 43 06.2 +31 36 26   0.05471 1.0422   141.1    37.0    20.5
    ...
    2019 04 07    14 31 07.8 +23 58 52   0.04866 1.0398   142.4    35.9    20.2
    ...
    2019 04 15    15 33 20.1 +09 12 37   0.04630 1.0410   144.2    34.3    20.0
    ...
    2019 04 30    16 54 19.7 -16 32 31   0.05959 1.0562   144.5    33.6    20.6
    
    A. U. Tomatic                (C) Copyright 2019 MPC           M.P.E.C. 2019-F141
    

    Read MPEC 2019-F140 Read MPEC 2019-F142


    MPEC number:

    Enter an MPEC number in one of the following forms:

    • 1997-B01 (the full form)
    • J97B01 (the packed version of the full form)
    • B01 (the abbreviated form)